Sault Ste Marie, MI

4:45 PM EST on January 17, 2017 (GMT -0500)
Sault Ste Marie Municipal / Sanderson Field

Weather History for KANJ - July, 2012

Change the Weather History Date:

Monday, July 23, 2012

  Actual Average Record
Temperature  
Mean Temperature 76 °F 66 °F  
Max Temperature 85 °F 77 °F 92 °F (1989)
Min Temperature 66 °F 55 °F 39 °F (1981)
Degree Days  
Heating Degree Days 0 2  
Month to date heating degree days 0 56  
Since 1 June heating degree days 100 236  
Since 1 July heating degree days 0 56  
Cooling Degree Days 11 3  
Month to date cooling degree days 152 60  
Year to date cooling degree days 238 95  
Since 1 June cooling degree days 221 90  
Growing Degree Days 24 (Base 50)    
Moisture  
Dew Point 64 °F    
Average Humidity 69    
Maximum Humidity 87    
Minimum Humidity 51    
Precipitation  
Precipitation 0.00 in 0.10 in 1.13 in (1918)
Month to date precipitation 1.55 2.05  
Year to date precipitation 14.47 15.19  
Sea Level Pressure  
Sea Level Pressure 29.79 in    
Wind  
Wind Speed 9 mph (NW)    
Max Wind Speed 17 mph    
Max Gust Speed 33 mph    
Visibility 10 miles    
Events      
T = Trace of Precipitation, MM = Missing Value Source: NWS Daily Summary

Daily Weather History Graph

Daily Weather History Graph

Search for Another Location

Airport or City:

Trip Planner

Search our weather history database for the weather conditions in past years. The results will help you decide how hot, cold, wet, or windy it might be!

Date:

Astronomy

Jul. 23, 2012 Rise Set
Actual Time 6:08 AM EDT 9:18 PM EDT
Civil Twilight 5:32 AM EDT 9:54 PM EDT
Nautical Twilight 4:45 AM EDT 10:41 PM EDT
Astronomical Twilight 3:46 AM EDT 11:39 PM EDT
Moon 11:20 AM EDT (7/23) 11:08 PM EDT (7/23)
Length of Visible Light 16h 22m
Length of Day
15h 10m
Waxing Crescent, 21% of the Moon is Illuminated
Jul 23
Waxing Crescent
Jul 26
First Quarter
Aug 1
Full
Aug 9
Last Quarter
Aug 17
New

Hourly Weather History & Observations

Time (EDT) Temp. Heat Index Dew Point Humidity Pressure Visibility Wind Dir Wind Speed Gust Speed Precip Events Conditions
12:55 AM 69.1 °F - 59.0 °F 70% 29.91 in 9.0 mi Calm Calm - N/A   Clear
1:55 AM 66.0 °F - 59.0 °F 78% 29.88 in 10.0 mi East 5.8 mph - N/A   Clear
2:55 AM 66.9 °F - 60.1 °F 79% 29.86 in 9.0 mi ENE 3.5 mph - N/A   Clear
3:55 AM 66.0 °F - 60.1 °F 81% 29.84 in 9.0 mi East 5.8 mph - N/A   Clear
4:55 AM 66.9 °F - 62.1 °F 84% 29.83 in 9.0 mi ENE 3.5 mph - N/A   Scattered Clouds
5:55 AM 66.9 °F - 62.1 °F 84% 29.81 in 9.0 mi Calm Calm - N/A   Partly Cloudy
6:55 AM 66.9 °F - 62.1 °F 84% 29.80 in 7.0 mi NE 3.5 mph - N/A   Partly Cloudy
7:55 AM 71.1 °F - 64.9 °F 81% 29.77 in 8.0 mi Calm Calm - N/A   Partly Cloudy
8:55 AM 77.0 °F - 69.1 °F 76% 29.75 in 10.0 mi WSW 10.4 mph - N/A   Clear
9:55 AM 80.1 °F 82.9 °F 69.1 °F 69% 29.73 in 10.0 mi WSW 9.2 mph - N/A   Scattered Clouds
10:55 AM 82.0 °F 85.5 °F 69.1 °F 65% 29.72 in 10.0 mi WNW 10.4 mph - N/A   Mostly Cloudy
11:55 AM 82.9 °F 86.5 °F 69.1 °F 63% 29.72 in 10.0 mi West 10.4 mph 20.7 mph N/A   Mostly Cloudy
12:02 PM 82.0 °F 85.5 °F 69.1 °F 65% 29.73 in 10.0 mi WNW 12.7 mph 19.6 mph N/A   Mostly Cloudy
12:51 PM 80.6 °F 82.7 °F 66.2 °F 61% 29.74 in 10.0 mi WNW 12.7 mph 21.9 mph N/A   Mostly Cloudy
12:55 PM 82.0 °F 84.5 °F 66.9 °F 60% 29.72 in 10.0 mi NW 11.5 mph 21.9 mph N/A   Mostly Cloudy
1:55 PM 82.9 °F 84.6 °F 64.9 °F 54% 29.73 in 10.0 mi NW 13.8 mph 23.0 mph N/A   Clear
2:55 PM 81.0 °F 82.2 °F 63.0 °F 54% 29.76 in 10.0 mi WNW 15.0 mph 24.2 mph N/A   Partly Cloudy
3:55 PM 82.0 °F 83.0 °F 62.1 °F 51% 29.75 in 10.0 mi WNW 17.3 mph 25.3 mph N/A   Clear
4:55 PM 78.1 °F - 62.1 °F 58% 29.76 in 10.0 mi WNW 16.1 mph 27.6 mph N/A   Partly Cloudy
5:55 PM 77.0 °F - 62.1 °F 60% 29.78 in 10.0 mi WNW 13.8 mph 27.6 mph N/A   Partly Cloudy
6:55 PM 75.9 °F - 61.0 °F 60% 29.79 in 10.0 mi WNW 16.1 mph 26.5 mph N/A   Clear
7:55 PM 73.9 °F - 62.1 °F 66% 29.79 in 10.0 mi WNW 10.4 mph 23.0 mph N/A   Clear
8:55 PM 71.1 °F - 63.0 °F 75% 29.81 in 10.0 mi WNW 12.7 mph - N/A   Clear
9:55 PM 70.0 °F - 63.0 °F 78% 29.81 in 10.0 mi WNW 13.8 mph 21.9 mph N/A   Clear
10:55 PM 70.0 °F - 64.0 °F 81% 29.83 in 10.0 mi WNW 8.1 mph - N/A   Partly Cloudy
11:55 PM 70.0 °F - 64.0 °F 81% 29.85 in 10.0 mi NNW 9.2 mph - N/A   Mostly Cloudy